Weather History for KATS - December, 2013

Change the Weather History Date:

Monday, December 23, 2013

  Actual Average Record
Temperature  
Mean Temperature 38 °F -  
Max Temperature 51 °F 55 °F 81 °F (1964)
Min Temperature 24 °F 20 °F -1 °F (1989)
Degree Days  
Heating Degree Days 28    
Moisture  
Dew Point 24 °F    
Average Humidity 69    
Maximum Humidity 100    
Minimum Humidity 28    
Precipitation  
Precipitation 0.00 in - - ()
Sea Level Pressure  
Sea Level Pressure 30.36 in    
Wind  
Wind Speed 5 mph (SSW)    
Max Wind Speed 12 mph    
Max Gust Speed -    
Visibility 10 miles    
Events      
Averages and records for this station are not official NWS values.
T = Trace of Precipitation, MM = Missing Value Source: NWS Daily Summary

Daily Weather History Graph

Daily Weather History Graph

Search for Another Location

Airport or City:

Trip Planner

Search our weather history database for the weather conditions in past years. The results will help you decide how hot, cold, wet, or windy it might be!

Date:

Astronomy

Dec. 23, 2013 Rise Set
Actual Time 6:57 AM MST 4:56 PM MST
Civil Twilight 6:30 AM MST 5:24 PM MST
Nautical Twilight 5:59 AM MST 5:55 PM MST
Astronomical Twilight 5:29 AM MST 6:25 PM MST
Moon 10:50 PM MST (12/23) 10:41 AM MST (12/23)
Length of Visible Light 10h 53m
Length of Day
9h 59m
Waning Gibbous, 67% of the Moon is Illuminated
Dec 23
Waning Gibbous
Dec 25
Last Quarter
Jan 1
New
Jan 7
First Quarter
Jan 15
Full

Hourly Weather History & Observations

Time (MST) Temp. Windchill Dew Point Humidity Pressure Visibility Wind Dir Wind Speed Gust Speed Precip Events Conditions
12:15 AM 26.6 °F 18.2 °F 24.8 °F 93% 30.27 in 10.0 mi WSW 8.1 mph - N/A   Clear
12:35 AM 26.6 °F 20.0 °F 24.8 °F 93% 30.27 in 10.0 mi WSW 5.8 mph - N/A   Clear
12:55 AM 26.6 °F 20.0 °F 24.8 °F 93% 30.26 in 10.0 mi WSW 5.8 mph - N/A   Clear
1:15 AM 26.6 °F 20.0 °F 24.8 °F 93% 30.27 in 10.0 mi WSW 5.8 mph - N/A   Clear
1:35 AM 26.6 °F 19.1 °F 24.8 °F 93% 30.27 in 10.0 mi WSW 6.9 mph - N/A   Clear
1:55 AM 26.6 °F - 24.8 °F 93% 30.28 in 10.0 mi Calm Calm - N/A   Clear
2:15 AM 26.6 °F 22.6 °F 24.8 °F 93% 30.28 in 10.0 mi SE 3.5 mph - N/A   Clear
2:35 AM 26.6 °F 19.1 °F 23.0 °F 86% 30.28 in 10.0 mi South 6.9 mph - N/A   Clear
2:55 AM 26.6 °F 16.2 °F 24.8 °F 93% 30.27 in 10.0 mi South 11.5 mph - N/A   Clear
3:15 AM 26.6 °F 20.0 °F 23.0 °F 86% 30.28 in 10.0 mi SSW 5.8 mph - N/A   Clear
3:35 AM 28.4 °F 24.6 °F 24.8 °F 86% 30.28 in 10.0 mi ESE 3.5 mph - N/A   Clear
3:55 AM 26.6 °F 21.2 °F 24.8 °F 93% 30.29 in 10.0 mi ESE 4.6 mph - N/A   Clear
4:15 AM 26.6 °F 21.2 °F 24.8 °F 93% 30.28 in 10.0 mi SSE 4.6 mph - N/A   Clear
4:35 AM 26.6 °F 22.6 °F 24.8 °F 93% 30.29 in 10.0 mi ESE 3.5 mph - N/A   Clear
4:55 AM 28.4 °F - 24.8 °F 86% 30.30 in 10.0 mi Calm Calm - N/A   Clear
5:15 AM 24.8 °F - 23.0 °F 93% 30.31 in 10.0 mi Calm Calm - N/A   Clear
5:35 AM 24.8 °F 19.1 °F 23.0 °F 93% 30.31 in 10.0 mi South 4.6 mph - N/A   Clear
5:55 AM 24.8 °F 20.5 °F 23.0 °F 93% 30.32 in 10.0 mi SSW 3.5 mph - N/A   Clear
6:15 AM 24.8 °F 19.1 °F 24.8 °F 100% 30.32 in 10.0 mi SW 4.6 mph - N/A   Clear
6:35 AM 24.8 °F 17.9 °F 23.0 °F 93% 30.34 in 10.0 mi SSW 5.8 mph - N/A   Clear
6:55 AM 24.8 °F 17.9 °F 23.0 °F 93% 30.35 in 10.0 mi SW 5.8 mph - N/A   Clear
7:15 AM 24.8 °F 19.1 °F 23.0 °F 93% 30.35 in 10.0 mi SW 4.6 mph - N/A   Clear
7:35 AM 26.6 °F 18.2 °F 24.8 °F 93% 30.36 in 10.0 mi WSW 8.1 mph - N/A   Clear
7:55 AM 28.4 °F 23.3 °F 26.6 °F 93% 30.38 in 10.0 mi NE 4.6 mph - N/A   Clear
8:15 AM 28.4 °F 24.6 °F 26.6 °F 93% 30.38 in 10.0 mi North 3.5 mph - N/A   Clear
8:35 AM 32.0 °F 28.7 °F 28.4 °F 87% 30.39 in 10.0 mi NNE 3.5 mph - N/A   Clear
8:55 AM 32.0 °F - 28.4 °F 87% 30.40 in 10.0 mi Calm Calm - N/A   Clear
9:15 AM 32.0 °F - 28.4 °F 87% 30.41 in 10.0 mi Calm Calm - N/A   Clear
9:35 AM 35.6 °F - 28.4 °F 75% 30.41 in 10.0 mi Calm Calm - N/A   Clear
9:55 AM 37.4 °F - 30.2 °F 75% 30.41 in 10.0 mi Calm Calm - N/A   Clear
10:15 AM 37.4 °F - 30.2 °F 75% 30.42 in 10.0 mi Calm Calm - N/A   Clear
10:35 AM 39.2 °F - 28.4 °F 65% 30.42 in 10.0 mi Calm Calm - N/A   Clear
10:55 AM 41.0 °F - 26.6 °F 57% 30.42 in 10.0 mi Calm Calm - N/A   Clear
11:15 AM 44.6 °F - 26.6 °F 49% 30.42 in 10.0 mi Calm Calm - N/A   Clear
11:35 AM 46.4 °F - 24.8 °F 43% 30.41 in 10.0 mi Calm Calm - N/A   Clear
11:55 AM 46.4 °F - 23.0 °F 40% 30.40 in 10.0 mi Calm Calm - N/A   Clear
12:15 PM 48.2 °F - 23.0 °F 37% 30.39 in 10.0 mi East 4.6 mph - N/A   Clear
12:35 PM 48.2 °F - 23.0 °F 37% 30.38 in 10.0 mi Calm Calm - N/A   Clear
12:55 PM 50.0 °F - 23.0 °F 35% 30.38 in 10.0 mi North 4.6 mph - N/A   Clear
1:15 PM 50.0 °F - 23.0 °F 35% 30.37 in 10.0 mi East 4.6 mph - N/A   Clear
1:35 PM 50.0 °F - 23.0 °F 35% 30.36 in 10.0 mi North 4.6 mph - N/A   Clear
1:55 PM 50.0 °F - 21.2 °F 32% 30.36 in 10.0 mi NNE 6.9 mph - N/A   Clear
2:15 PM 51.8 °F - 21.2 °F 30% 30.36 in 10.0 mi NE 5.8 mph - N/A   Clear
2:35 PM 51.8 °F - 21.2 °F 30% 30.36 in 10.0 mi NNE 8.1 mph - N/A   Clear
2:55 PM 51.8 °F - 21.2 °F 30% 30.36 in 10.0 mi NE 8.1 mph - N/A   Clear
3:15 PM 51.8 °F - 19.4 °F 28% 30.36 in 10.0 mi NE 5.8 mph - N/A   Clear
3:35 PM 51.8 °F - 21.2 °F 30% 30.37 in 10.0 mi East 4.6 mph - N/A   Clear
3:55 PM 51.8 °F - 19.4 °F 28% 30.36 in 10.0 mi ENE 5.8 mph - N/A   Clear
4:15 PM 50.0 °F - 21.2 °F 32% 30.36 in 10.0 mi Calm Calm - N/A   Clear
4:35 PM 50.0 °F - 23.0 °F 35% 30.37 in 10.0 mi Calm Calm - N/A   Clear
4:55 PM 48.2 °F - 23.0 °F 37% 30.37 in 10.0 mi Calm Calm - N/A   Clear
5:15 PM 44.6 °F 42.2 °F 24.8 °F 46% 30.38 in 10.0 mi South 4.6 mph - N/A   Clear
5:35 PM 41.0 °F 37.1 °F 23.0 °F 49% 30.38 in 10.0 mi South 5.8 mph - N/A   Clear
5:55 PM 37.4 °F 32.8 °F 24.8 °F 60% 30.39 in 10.0 mi South 5.8 mph - N/A   Clear
6:15 PM 39.2 °F 35.0 °F 23.0 °F 52% 30.39 in 10.0 mi South 5.8 mph - N/A   Clear
6:35 PM 37.4 °F 32.1 °F 23.0 °F 56% 30.39 in 10.0 mi South 6.9 mph - N/A   Clear
6:55 PM 35.6 °F 30.7 °F 23.0 °F 60% 30.39 in 10.0 mi South 5.8 mph - N/A   Clear
7:15 PM 35.6 °F 29.9 °F 23.0 °F 60% 30.40 in 10.0 mi SSW 6.9 mph - N/A   Clear
7:35 PM 35.6 °F 30.7 °F 23.0 °F 60% 30.39 in 10.0 mi South 5.8 mph - N/A   Clear
7:55 PM 32.0 °F 26.4 °F 23.0 °F 69% 30.40 in 10.0 mi SSW 5.8 mph - N/A   Clear
8:15 PM 33.8 °F 26.4 °F 23.0 °F 65% 30.40 in 10.0 mi SW 9.2 mph - N/A   Clear
8:35 PM 32.0 °F 24.2 °F 24.8 °F 75% 30.41 in 10.0 mi SW 9.2 mph - N/A   Clear
8:55 PM 32.0 °F 23.6 °F 24.8 °F 75% 30.41 in 10.0 mi WSW 10.4 mph - N/A   Clear
9:15 PM 32.0 °F 24.2 °F 24.8 °F 75% 30.41 in 10.0 mi WSW 9.2 mph - N/A   Clear
9:35 PM 32.0 °F 23.6 °F 24.8 °F 75% 30.42 in 10.0 mi West 10.4 mph - N/A   Clear
9:55 PM 32.0 °F 24.2 °F 24.8 °F 75% 30.42 in 10.0 mi West 9.2 mph - N/A   Clear
10:35 PM 30.2 °F 23.4 °F 24.8 °F 80% 30.41 in 10.0 mi West 6.9 mph - N/A   Clear
10:55 PM 30.2 °F - 24.8 °F 80% 30.41 in 10.0 mi Calm Calm - N/A   Clear
11:15 PM 28.4 °F - 24.8 °F 86% 30.41 in 10.0 mi Calm Calm - N/A   Clear
11:35 PM 28.4 °F - 24.8 °F 86% 30.41 in 10.0 mi Calm Calm - N/A   Clear
11:55 PM 28.4 °F - 24.8 °F 86% 30.40 in 10.0 mi Calm Calm - N/A   Clear